OBJECT M, 67259

Orbit data source: Space-Track

You're viewing an Uncataloged Satellite

Recently launched and/or uncataloged satellites may have evolving metadata. Metadata may include but not limited to: Owner, Maufacturer, Bus, Motor, and Mission.

OBJECT M, 67259 is a satellite in SSO that was launched on Sun, 28 Dec 2025 UTC via a SOYUZ-2-1B launch vehicle from the Vostochny Cosmodrome (VOSTO). Unknown objects in Earth's orbit typically refer to objects detected orbiting the Earth but have not yet been identified or cataloged. These objects could be anything from previously untracked satellites, spent rocket stages, debris from satellite collisions, or even natural meteoroids temporarily captured by Earth's gravity.

Loading next visibility...
Identifier
67259, 2025-313M
Orbit
SSO
Country
Flag of TBDTBD
Related business
None
Manufacturer
Unknown
Mission
Operational Commercial Technology
Bus & Motor
Unknown
Mass
Unknown
Launch date (UTC)
2025-12-28 (6 months ago)
Launch vehicle
SOYUZ-2-1B
Launch site
Vostochny Cosmodrome (VOSTO)
Object type
Unknown
Shape & HBR
Box, 0.2 m
Radar Cross Section
0.240 m², Medium (>0.1 m² and < 1m²)

Expand to show TLE details & history
Last TLE update: 15 hours ago

TLE from 15 hours ago
0 OBJECT M
1 67259U 25313M   26171.20416687  .00009680  00000-0  39448-3 0  9998
2 67259  97.3968 246.0837 0013536 356.3564   3.7573 15.24588795 26426
Epoch: 2026-06-20T04:54Z
TLE epoch observation values (Epoch: 2026-06-20T04:54:00.017Z)
Latitude
-0.00001°
Longitude
-95.83852°
Altitude
485.836 km
Speed
7.627 km/s
True Right ascension
16h 24m 20s
True Declination
0° 00' 00"
Sunlit
Object was in full shadow at epoch
Visualization orbit readout
Latitude
Unknown
Longitude
Unknown
Altitude
Unknown
Speed
Unknown
Apparent Right ascension
Unknown
Apparent Declination
Unknown
Sunlit
N/A
Visualization observer readout
Local Sidereal Time
07:19:42
Azimuth
Unknown
Elevation
Unknown
Doppler factor
Unknown
Orbital elements
Apogee altitude
498.275 km
Perigee altitude
479.684 km
Semi-major axis
6,867.117 km
Eccentricity
0.00135
Inclination
97.3968°
RAAN
246.0837°
Arg. of periapsis
356.3564°
True anomaly
3.76748°
Mean anomaly
3.7573°
Eccentric anomaly
3.76239°
Mean motion
3.81401 °/min
Orbital period
94.39 mins
BSTAR
0.00039448
Loading maneuver chart data...
Computing Atmospheric mass density...
Loading historical data...
Loading historical data...
Loading historical data...
Loading historical data...
Loading historical data...
Loading historical data...
Loading historical data...

Documentation

Showing up to 5 results
|